Back to catalog

HULIANWANG DIGUI-168

AliveCommunicationsPO
NORAD 68660·PAYLOAD·🇨🇳 China

Launched Apr 8, 2026 from Taiyuan Satellite Launch Center

Loading…

Next Passes (next 24 hours)

TLE

FreshSource: Space-Track

Epoch: Sep 14, 2026, 13:05 UTC

1 68660U 26076E   26257.54569625  .00000009  00000-0 -13161-4 0  9997
2 68660  86.5025  13.6797 0001276 108.5531 251.5742 13.24407198 21194

Track HULIANWANG DIGUI-168 in real time with AllMySat

Download on the App Store